Date String (YYYY-MM-DD hh:mm:ss) UTC,Instrument flags,absolute air pressure of the measurement (hPa),sample flow rate (lpm),inlet stack bypass flow (lpm),air temperature of the measurement (°C),ambient temperature measured by the external sensor (°C),aerosol sample conditioner tube jacket temperature (°C),OPC LED temperature (°C),internal box temperature (°C),relative humidity of the measurement (%),span deviation,mass concentration of particles derived from Lorenz-Mie calculation of OPC scattering (μg/m³),mass concentration of particles derived from Lorenz-Mie calculation of OPC scattering (μg/m³),mass concentration of particles derived from Lorenz-Mie calculation of OPC scattering (μg/m³)
DateTimeUTC,F1_M11,P_M11,Q1_M11,Q2_M11,T1_M11,T2_M11,T3_M11,T4_M11,T5_M11,U1_M11,ZSPAN_M11,X0_M11,X2_M11,X1_M11
2023-08-17 14:00:00,SystemResetWarning,0836.6,5.01,000.00,028.3,027.1,000.0,036.8,030.1,33.8,0002.9,0025.33,0016.13,0014.89
2023-08-17 14:01:00,SystemResetWarning,0836.7,5.01,000.00,028.4,027.2,000.0,036.8,030.2,33.7,0002.9,0025.73,0016.12,0014.87
2023-08-17 14:02:00,SystemResetWarning,0836.8,5.00,000.00,028.4,027.2,000.0,036.8,030.2,33.9,0002.6,0024.81,0016.13,0014.87
2023-08-17 14:03:00,SystemResetWarning,0836.7,4.98,000.00,028.4,026.2,000.0,036.7,030.0,33.5,0002.4,0024.57,0016.13,0014.89
2023-08-17 14:04:00,SystemResetWarning,0836.7,5.00,000.00,028.3,024.6,000.0,036.6,029.7,33.6,0002.2,0024.83,0016.22,0014.93
2023-08-17 14:05:00,SystemResetWarning,0836.7,5.01,000.00,028.3,024.4,000.0,036.6,029.7,33.9,0002.4,0024.70,0016.40,0015.01
2023-08-17 14:06:00,SystemResetWarning,0836.8,5.00,000.00,028.2,024.7,000.0,036.6,029.6,33.7,0002.2,0025.12,0016.56,0015.09
2023-08-17 14:07:00,SystemResetWarning,0836.8,5.00,000.00,028.1,025.0,000.0,036.6,029.6,33.8,0002.4,0024.99,0016.61,0015.15
2023-08-17 14:08:00,SystemResetWarning,0836.8,5.01,000.00,028.1,025.4,000.0,036.6,029.7,34.1,0002.4,0025.40,0016.71,0015.24
2023-08-17 14:09:00,SystemResetWarning,0836.8,5.00,000.00,028.2,025.8,000.0,036.6,029.8,33.9,0002.6,0025.74,0016.77,0015.26
2023-08-17 14:10:00,SystemResetWarning,0836.8,5.00,000.00,028.2,026.1,000.0,036.7,029.8,33.8,0002.5,0026.40,0016.86,0015.28
2023-08-17 14:11:00,SystemResetWarning,0836.8,5.00,000.00,028.2,026.3,000.0,036.7,029.9,33.8,0002.3,0027.11,0016.86,0015.32
2023-08-17 14:12:00,SystemResetWarning,0836.8,4.99,000.00,028.2,026.6,000.0,036.7,030.0,33.9,0002.2,0026.63,0016.84,0015.29
2023-08-17 14:13:00,SystemResetWarning,0836.8,4.99,000.00,028.3,026.8,000.0,036.7,030.0,33.4,0002.3,0026.11,0016.88,0015.29
2023-08-17 14:14:00,SystemResetWarning,0836.8,5.01,000.00,028.3,026.9,000.0,036.7,030.1,33.1,0002.1,0025.41,0016.82,0015.26
2023-08-17 14:15:00,SystemResetWarning,0836.8,5.01,000.00,028.3,027.1,000.0,036.8,030.1,33.1,0001.9,0025.36,0016.79,0015.20
2023-08-17 14:16:00,SystemResetWarning,0836.8,4.99,000.00,028.4,027.2,000.0,036.8,030.2,33.1,0002.0,0025.17,0016.75,0015.13
2023-08-17 14:17:00,SystemResetWarning,0836.8,4.98,000.00,028.4,026.7,000.0,036.7,030.1,33.0,0002.3,0026.51,0016.72,0015.08
2023-08-17 14:18:00,SystemResetWarning,0836.8,5.00,000.00,028.4,025.1,000.0,036.6,029.9,33.3,0002.2,0027.42,0016.79,0015.04
2023-08-17 14:19:00,SystemResetWarning,0836.8,5.00,000.00,028.3,024.4,000.0,036.6,029.7,32.9,0002.0,0028.29,0016.77,0015.00
2023-08-17 14:20:00,SystemResetWarning,0836.8,5.01,000.00,028.2,024.6,000.0,036.6,029.6,33.0,0001.6,0028.85,0016.72,0014.92
2023-08-17 14:21:00,SystemResetWarning,0836.8,5.00,000.00,028.2,025.0,000.0,036.6,029.6,33.1,0001.7,0029.51,0016.61,0014.83
2023-08-17 14:22:00,SystemResetWarning,0836.8,4.99,000.00,028.1,025.3,000.0,036.6,029.7,33.3,0001.7,0028.80,0016.54,0014.74
2023-08-17 14:23:00,SystemResetWarning,0836.8,5.00,000.00,028.2,025.7,000.0,036.6,029.7,33.4,0001.5,0028.66,0016.48,0014.68
2023-08-17 14:24:00,SystemResetWarning,0836.8,5.01,000.00,028.2,026.0,000.0,036.6,029.8,33.0,0001.2,0028.92,0016.44,0014.62
2023-08-17 14:25:00,SystemResetWarning,0836.8,5.01,000.00,028.2,026.3,000.0,036.7,029.9,32.9,0001.5,0029.15,0016.46,0014.57
2023-08-17 14:26:00,SystemResetWarning,0836.7,4.99,000.00,028.2,026.5,000.0,036.7,029.9,32.9,0001.8,0029.33,0016.49,0014.55
2023-08-17 14:27:00,SystemResetWarning,0836.7,4.99,000.00,028.2,026.7,000.0,036.7,030.0,32.8,0001.4,0030.47,0016.45,0014.53
2023-08-17 14:28:00,SystemResetWarning,0836.8,5.00,000.00,028.3,026.9,000.0,036.7,030.1,32.8,0001.0,0029.30,0016.37,0014.49
2023-08-17 14:29:00,SystemResetWarning,0836.8,5.01,000.00,028.3,027.1,000.0,036.7,030.1,32.5,0001.0,0029.71,0016.30,0014.47
2023-08-17 14:30:00,SystemResetWarning,0836.8,5.00,000.00,028.4,027.0,000.0,036.7,030.1,32.0,0000.9,0029.31,0016.24,0014.45
2023-08-17 14:31:00,SystemResetWarning,0836.8,4.99,000.00,028.4,025.6,000.0,036.6,029.9,32.1,0001.0,0029.08,0016.21,0014.46
2023-08-17 14:32:00,SystemResetWarning,0836.8,5.00,000.00,028.3,024.5,000.0,036.6,029.7,32.3,0000.9,0030.99,0016.20,0014.50
2023-08-17 14:33:00,SystemResetWarning,0836.8,5.00,000.00,028.2,024.5,000.0,036.5,029.6,32.3,0001.1,0031.42,0016.31,0014.53
2023-08-17 14:34:00,SystemResetWarning,0836.8,5.01,000.00,028.1,024.8,000.0,036.6,029.5,32.3,0001.6,0031.83,0016.39,0014.54
2023-08-17 14:35:00,SystemResetWarning,0836.8,5.01,000.00,028.1,025.2,000.0,036.6,029.6,32.4,0001.4,0032.72,0016.42,0014.56
2023-08-17 14:36:00,SystemResetWarning,0836.7,4.99,000.00,028.1,025.6,000.0,036.6,029.7,32.8,0001.1,0033.58,0016.37,0014.57
2023-08-17 14:37:00,SystemResetWarning,0836.7,5.00,000.00,028.1,025.9,000.0,036.6,029.8,33.2,0001.0,0034.25,0016.28,0014.55
2023-08-17 14:38:00,SystemResetWarning,0836.8,5.00,000.00,028.2,026.2,000.0,036.6,029.8,32.9,0001.5,0032.83,0016.27,0014.56
2023-08-17 14:39:00,SystemResetWarning,0836.7,4.99,000.00,028.2,026.5,000.0,036.6,029.9,32.5,0001.5,0032.62,0016.26,0014.57
2023-08-17 14:40:00,SystemResetWarning,0836.7,5.00,000.00,028.2,026.7,000.0,036.7,030.0,32.3,0001.2,0031.46,0016.18,0014.51
2023-08-17 14:41:00,SystemResetWarning,0836.6,5.00,000.00,028.3,026.9,000.0,036.7,030.0,32.4,0001.3,0031.29,0016.15,0014.43
2023-08-17 14:42:00,SystemResetWarning,0836.7,5.00,000.00,028.3,027.0,000.0,036.7,030.1,32.5,0001.2,0030.81,0016.07,0014.32
2023-08-17 14:43:00,SystemResetWarning,0836.6,4.99,000.00,028.3,026.0,000.0,036.6,029.9,32.3,0001.2,0028.94,0016.02,0014.23
2023-08-17 14:44:00,SystemResetWarning,0836.6,5.02,000.00,028.2,024.6,000.0,036.5,029.6,32.3,0001.4,0028.38,0015.91,0014.15
2023-08-17 14:45:00,SystemResetWarning,0836.6,5.00,000.00,028.2,024.4,000.0,036.4,029.6,31.7,0001.1,0027.94,0015.78,0014.07
2023-08-17 14:46:00,SystemResetWarning,0836.6,5.00,000.00,028.1,024.7,000.0,036.5,029.5,31.4,0001.0,0026.98,0015.69,0013.99
2023-08-17 14:47:00,SystemResetWarning,0836.6,5.00,000.00,028.0,025.0,000.0,036.5,029.5,31.4,0001.0,0026.34,0015.63,0013.92
2023-08-17 14:48:00,SystemResetWarning,0836.6,5.00,000.00,028.1,025.4,000.0,036.5,029.6,31.5,0000.8,0025.74,0015.65,0013.89
2023-08-17 14:49:00,SystemResetWarning,0836.6,5.00,000.00,028.1,025.8,000.0,036.6,029.7,31.5,0000.7,0025.82,0015.63,0013.84
2023-08-17 14:50:00,SystemResetWarning,0836.6,5.01,000.00,028.1,026.1,000.0,036.6,029.8,31.5,0000.5,0026.02,0015.52,0013.76
2023-08-17 14:51:00,SystemResetWarning,0836.6,5.00,000.00,028.1,026.3,000.0,036.6,029.9,31.5,0000.5,0029.19,0015.57,0013.73
2023-08-17 14:52:00,SystemResetWarning,0836.6,5.00,000.00,028.2,026.6,000.0,036.6,029.9,31.5,0000.3,0029.63,0015.60,0013.72
2023-08-17 14:53:00,SystemResetWarning,0836.6,5.00,000.00,028.2,026.8,000.0,036.6,030.0,31.4,0000.2,0029.54,0015.65,0013.76
2023-08-17 14:54:00,SystemResetWarning,0836.6,5.00,000.00,028.2,026.9,000.0,036.7,030.0,31.1,0000.1,0029.66,0015.63,0013.76
2023-08-17 14:55:00,SystemResetWarning,0836.6,4.98,000.00,028.3,026.4,000.0,036.6,029.9,31.4,0000.0,0030.03,0015.65,0013.75
2023-08-17 14:56:00,SystemResetWarning,0836.6,5.00,000.00,028.2,025.0,000.0,036.5,029.6,31.9,0000.3,0030.71,0015.64,0013.75
2023-08-17 14:57:00,SystemResetWarning,0836.6,5.01,000.00,028.1,024.4,000.0,036.4,029.5,31.9,0000.7,0030.78,0015.65,0013.76
2023-08-17 14:58:00,SystemResetWarning,0836.6,5.02,000.00,028.1,024.7,000.0,036.4,029.4,32.2,0000.8,0031.62,0015.73,0013.80
2023-08-17 14:59:00,SystemResetWarning,0836.6,5.00,000.00,028.0,025.0,000.0,036.5,029.5,32.9,0001.0,0032.99,0015.74,0013.78
